Regional Weather Roundup
Issued by NWS Upton, NY

Current Version | Previous Version | Text Only | Print | Product List | Glossary On
Versions: 1 2 3 4 5 6 7 8 9 10 11 12 13 14 15 16 17 18 19 20 21 22 23 24 25 26 27 28 29 30 31 32 33 34 35 36
000
ASUS41 KOKX 230605
RWROKX

REGIONAL WEATHER ROUNDUP
NATIONAL WEATHER SERVICE NEW YORK NY
200 AM EDT THU OCT 23 2014

NOTE: "FAIR" INDICATES FEW OR NO CLOUDS BELOW 12,000 FEET WITH NO
SIGNIFICANT WEATHER AND/OR OBSTRUCTIONS TO VISIBILITY.

NYZ071-072-176-178-NJZ106-104-230700-
NEW YORK CITY METRO AREA


CITY           SKY/WX    TMP DP  RH WIND       PRES   REMARKS
CENTRAL PARK   CLOUDY    52  46  80 N8G23     29.75S
LAGUARDIA APRT CLOUDY    53  47  79 N15G22    29.71F
KENNEDY INTL   CLOUDY    54  46  74 N23G31    29.70S
NEWARK/LIBERTY CLOUDY    53  47  79 N25G33    29.72F
BRNX BOT. GARD   N/A     52  45  76 SW5       29.74S
TETERBORO      CLOUDY    53  45  74 N17G29    29.72S
$$

NYZ177-179-078>081-230700-
LONG ISLAND NEW YORK

CITY           SKY/WX    TMP DP  RH WIND       PRES   REMARKS
FARMINGDALE    CLOUDY    53  47  79 N21G33    29.68F
ISLIP          CLOUDY    52  47  83 N28       29.64F
SHIRLEY        CLOUDY    53  47  79 N17G37    29.66F
WESTHAMPTON    CLOUDY    54  48  80 N24G37    29.65S
MONTAUK POINT    N/A     56  52  86 N22G32    29.62F
$$

NYZ052-065-067-230700-
HUDSON VALLEY

CITY           SKY/WX    TMP DP  RH WIND       PRES   REMARKS
WHITE PLAINS   MOCLDY    51  45  79 N14G31    29.71F
NEWBURGH       CLOUDY    50  48  93 NE21G32   29.82S
MONTGOMERY     LGT RAIN  50  46  86 N15       29.78F
POUGHKEEPSIE   LGT RAIN  50  46  86 N13       29.80F
ALBANY         RAIN      49  43  80 N13G21    29.91F
$$

NJZ001-105-106-008-010-013-015-019>022-104-230700-
NEW JERSEY

CITY           SKY/WX    TMP DP  RH WIND       PRES   REMARKS
NEWARK/LIBERTY CLOUDY    53  47  79 N25G33    29.72F
TETERBORO      CLOUDY    53  45  74 N17G29    29.72S
CALDWELL       CLOUDY    51  50  97 NE7G21    29.75F
MORRISTOWN     CLOUDY    54  46  76 N12G25    29.75S
SOMERVILLE     CLOUDY    53  46  77 N16G24    29.74S
SUSSEX         CLOUDY    53  46  77 N5        29.79F
ANDOVER          N/A     50  46  86 N8        29.79F
TRENTON        LGT RAIN  51  47  86 N15       29.74F
MILLVILLE      CLOUDY    51  48  89 NW16G24   29.74S
ATLANTIC CITY  CLOUDY    51  49  92 NW18G28   29.69F
WRIGHTSTOWN    LGT RAIN  50  49  97 NW17G26   29.69F
TOMS RIVER     CLOUDY    50  48  93 N8        29.69S
BELMAR         CLOUDY    52  45  76 N13G18    29.68S
$$

PAZ047>061-062-071-230700-
EASTERN PENNSYLVANIA

CITY           SKY/WX    TMP DP  RH WIND       PRES   REMARKS
PHILADELPHIA   LGT RAIN  52  47  83 NW21G30   29.76F
ALLENTOWN      CLOUDY    52  44  74 N13G22    29.80F
SCRANTON       LGT RAIN  48  43  82 N12G22    29.88F
$$

CTZ002-004>006-009-010-012-RIZ004-006-007-MAZ004-011-015-230700-
SOUTHERN NEW ENGLAND
 IN CT

CITY           SKY/WX    TMP DP  RH WIND       PRES   REMARKS
BRADLEY INTL   LGT RAIN  50  46  86 N17G28    29.79R
HARTFORD       CLOUDY    50  46  86 N14G31    29.77S
DANBURY        CLOUDY    51  44  77 N13G24    29.77S
WTRBRY/OXFORD  CLOUDY    48  41  76 NE22G38   29.73F
BRIDGEPORT     MOCLDY    52  47  83 N28G39    29.69S
MERIDEN        CLOUDY    50  46  86 N14G22    29.75F
NEW HAVEN      LGT RAIN  51  47  86 N28G38    29.69F
CHESTER        LGT RAIN  50  46  87 N14G28    29.71F
GROTON         LGT RAIN  50  48  93 N24G40    29.63F
WILLIMANTIC    MOCLDY    50  45  83 N17G28    29.73F

 IN RI

CITY           SKY/WX    TMP DP  RH WIND       PRES   REMARKS
PROVIDENCE     LGT RAIN  52  49  89 N30G37    29.70F
BLOCK ISLAND   CLOUDY    54  50  87 N18G32    29.60F
WESTERLY       CLOUDY    52  49  89 N18G28    29.65F

 IN MA

CITY           SKY/WX    TMP DP  RH WIND       PRES   REMARKS
BOSTON         LGT RAIN  50  50 100 NE26G46   29.75R FOG
WORCESTER      HVY RAIN  45  43  93 NE18G26   29.80F FOG
WESTFIELD      RAIN      49  46  90 NE13G21   29.84R
PROVINCETOWN   CLOUDY    57  54  88 NE24G32   29.67F THUNDER
NANTUCKET      LGT RAIN  60  59  96 NE12      29.57F
$$

ANZ330-335-338-340-345-350-353-355-230700-
COASTAL MARINE OBSERVATIONS


STATION/POSITION TIME  SKY/WX   TEMP    WIND        PRES    VSBY  WAVE
                                AIR SEA DIR/SP/G                  HT/PER
                 (UTC)          (F)     (DEG/KT/KT) (MB)    (MI)  (FT/S)
NY HARB ENTRANCE NOT AVBL
4S FIRE IS       0600               63                N/A           6/ 6
20S FIRE ISLAND  0600            57 63   20/ 33/ 39 1001.1          9/ 6
23SW MTP         0600                                 N/A          10/ 7
HUDSON CANYON    0600            63 67   30/ 23/ 27  998.6         10/ 8
EXECUTION ROCKS  0600            55 63   20/ 19/ 27   N/A
WESTERN LI SOUND 0500            55      30/ 19/ 25   N/A           4/ 4
CENTRAL LI SOUND 0500            54 63   10/ 25/ 29   N/A           5/ 6
EASTERN LI SOUND 0500            55 63   30/ 25/ 35   N/A
ROBBINS REEF     0600            53     360/ 24/ 30 1004.7
$$


>>>>>>>>>>>>>>>>>>>>>>>>>>>> KEY <<<<<<<<<<<<<<<<<<<<<<<<<<<
>                                                          <
>     SKY/WX - SKY CONDITION/PRESENT WEATHER               <
>     TMP    - TEMPERATURE IN FAHRENHEIT                   <
>     DP     - DEWPOINT IN FAHRENHEIT                      <
>     RH     - RELATIVE HUMIDITY IN PERCENT                <
>     WIND   - DIRECTION AND SPEED IN MPH                  <
>     PRES   - MEAN SEA LEVEL PRESSURE IN INCHES OF HG     <
>     WCI    - WIND CHILL INDEX                            <
>     VSB    - VISIBILITY IN MILES                         <
>     HX     - HEAT INDEX                                  <
>     TC     - TEMPERATURE IN CELSIUS                      <
>     VRB    - VARIABLE WIND DIRECTION                     <
>                                                          <
>>>>>>>>>>>>>>>>>>>>>>>>>>>> KEY <<<<<<<<<<<<<<<<<<<<<<<<<<<





USA.gov is the U.S. government's official web portal to all federal, state and local government web resources and services.